To modify the report, make a selection from each column below and re-run.

Report Type Graduation Filter Grade Filter Gender Distance

(Grade filter for indiv report.)


Course PR Report: Mt. Sac

The report below currently displays:

  • Individual PR's
  • Grads & Current Runners
  • All Grades
  • Girls
  • 2.93 miles
  • Grads & Current Runners
All Time Rank Runner Name Grad Year Time Pace PR Date PR Event # of
Races
Graph full race
history on course
(pick up to 15)
1 Megan Petkovic 2008 18:27 6:18 11/17/07 Southern Section Finals 7
2 Kelly Caulfield 2010 18:49 6:25 11/14/09 Southern Section Prelims 2
3 Shelly Foerster 2008 19:26 6:38 11/12/05 Southern Section Prelims 3
4 Aiko Araki 2009 19:37 6:42 11/10/07 Southern Section Prelims 3
5 Alex Edwards 2011 19:41 6:43 10/23/10 Mt. Sac Invitational 2
6 Melisa Bartoletti 2011 19:57 6:49 11/15/08 Southern Section Prelims 2
6 Kristin Rooney 2007 19:57 6:49 11/12/05 Southern Section Prelims 1
8 Alexandria Brady 2018 20:12 6:54 10/23/15 Mt. Sac Invitational 2
9 Emily Leeb 2019 20:15 6:55 10/21/16 Mt. Sac Invitational 2
10 Meliss Bartoletti 2011 20:19 6:56 10/23/10 Mt. Sac Invitational 2
11 Carolina Leyva 2012 20:22 6:57 11/13/10 Southern Section Prelims 4
12 Hayley Cook 2013 20:23 6:57 10/23/10 Mt. Sac Invitational 2
13 Kristen Rooney 2007 20:30 7:00 10/21/06 Mt. Sac Invitational 2
14 Haley Cook 2013 20:35 7:02 11/14/09 Southern Section Prelims 2
15 Shelly Foerester 2008 20:37 7:02 10/19/07 Mt. Sac Invitational 1
16 Alyssa Cook 2011 20:38 7:03 10/23/10 Mt. Sac Invitational 7
17 Lina Leyva 2012 20:42 7:04 10/23/09 Mt. Sac Invitational 1
18 Soemy Garcia 2016 20:50 7:07 10/20/12 Mt. Sac Invitational 4
18 Shelley Foerster 2008 20:50 7:07 10/24/04 Mt. Sac Invitational 1
20 Abigail Delight 2025 20:52.1 7:07 10/22/21 Mt. Sac Invitational 2
21 Monica Fernandez 2013 20:57 7:09 10/23/10 Mt. Sac Invitational 2
22 Michell Sandejas 2009 21:04 7:11 10/21/06 Mt. Sac Invitational 1
23 Rachel Tang 2014 21:06 7:12 10/20/12 Mt. Sac Invitational 2
24 Sonia Salazar 2022 21:08.5 7:13 11/13/21 Southern Section Prelims 1
25 Michelle Sendejas 2009 21:14 7:15 11/12/05 Southern Section Prelims 1
26 Brittany Frymire 2008 21:15 7:15 10/24/04 Mt. Sac Invitational 1
27 Kristen Herrero 2014 21:26 7:19 10/20/12 Mt. Sac Invitational 3
27 Candac Abadjian 2008 21:26 7:19 10/19/07 Mt. Sac Invitational 2
29 Candace Abadjian 2008 21:32 7:21 11/10/07 Southern Section Prelims 2
30 Charisa Dorn 2015 21:34 7:22 10/25/13 Mt. Sac Invitational 2
31 Kristen Herrera 2014 21:36 7:22 10/23/10 Mt. Sac Invitational 2
32 Traci Biedermann 2009 21:37 7:23 11/12/05 Southern Section Prelims 1
33 Autu Velasquez 2008 21:46 7:26 10/21/06 Mt. Sac Invitational 1
34 Christina Page 2007 21:48 7:26 11/12/05 Southern Section Prelims 2
35 My Ly 2019 21:49 7:27 10/23/15 Mt. Sac Invitational 1
36 Ava Scarberry 2022 21:50.7 7:27 10/22/21 Mt. Sac Invitational 1
37 Jessica Jorgensen 2005 21:55 7:29 10/24/04 Mt. Sac Invitational 1
38 Lupe Mata 2024 21:56.3 7:29 11/13/21 Southern Section Prelims 2
39 Lucy Hendriks 2025 21:56.9 7:29 11/13/21 Southern Section Prelims 2
40 Aubrey Delano 2007 22:05 7:32 10/24/04 Mt. Sac Invitational 1
41 Brooke Gann 2015 22:16 7:36 10/20/12 Mt. Sac Invitational 2
42 Marissa Jacobus 2011 22:18 7:37 11/14/09 Southern Section Prelims 5
43 Tra Biedermann 2008 22:23 7:38 10/21/06 Mt. Sac Invitational 1
44 Alexandra Edwards 2011 22:24 7:39 11/15/08 Southern Section Prelims 1
45 Alice Huynh 2008 22:36 7:43 10/19/07 Mt. Sac Invitational 2
46 Sophia Sherman 2012 22:38 7:43 10/21/11 Mt. Sac Invitational 2
47 Sabrina Gutierrez 2023 22:39.1 7:44 10/22/21 Mt. Sac Invitational 2
48 Vicky Vu 2014 22:42 7:45 10/21/11 Mt. Sac Invitational 2
49 Pamela Copley 2014 22:51 7:48 10/21/11 Mt. Sac Invitational 2
50 Sophia Cruz 2023 22:54.5 7:49 10/22/21 Mt. Sac Invitational 2
51 Lauren Tang 2018 22:59 7:51 10/23/15 Mt. Sac Invitational 2
52 Alice Nuynh 2008 23:00 7:51 11/10/07 Southern Section Prelims 1
53 Chelsey Way 2005 23:01 7:51 10/24/04 Mt. Sac Invitational 1
54 Hannah Anvari 2013 23:07 7:53 10/21/11 Mt. Sac Invitational 1
55 Courtney Melancon 2025 23:08.2 7:54 11/13/21 Southern Section Prelims 2
56 Jocelyn Corona 2024 23:17 7:57 10/22/21 Mt. Sac Invitational 1
57 Yasmin C Marin 2013 23:19 7:57 10/20/12 Mt. Sac Invitational 1
58 Audrey Simpson 2019 23:25 8:00 10/23/15 Mt. Sac Invitational 2
59 Hannah Jensen 2022 23:26.3 8:00 10/22/21 Mt. Sac Invitational 1
60 Yasmin Marin 2013 23:27 8:00 10/21/11 Mt. Sac Invitational 1
60 Bethany Lettiere 2010 23:27 8:00 11/10/07 Southern Section Prelims 2
62 Erika Tollman 2011 23:31 8:02 10/19/07 Mt. Sac Invitational 1
62 Vanessa Lord 2006 23:31 8:02 10/24/04 Mt. Sac Invitational 1
64 Markae Moses 2011 23:35 8:03 10/19/07 Mt. Sac Invitational 1
65 Karen Lopez 2005 23:37 8:04 10/24/04 Mt. Sac Invitational 1
66 Rachel Byrne 2007 23:38 8:04 10/21/06 Mt. Sac Invitational 1
67 Anh-thu Chau 2005 23:43 8:06 10/24/04 Mt. Sac Invitational 1
68 Pamela C Copley 2014 23:44 8:06 10/20/12 Mt. Sac Invitational 1
69 Kayla Corn 2006 23:47 8:07 10/24/04 Mt. Sac Invitational 1
70 Vicky C Vu 2014 23:49 8:08 10/20/12 Mt. Sac Invitational 1
71 Kathy Blanco 2010 23:52 8:09 11/14/09 Southern Section Prelims 1
71 Alexan Edwards 2011 23:52 8:09 10/19/07 Mt. Sac Invitational 1
73 Marissa Keesey 2018 23:53 8:09 10/23/15 Mt. Sac Invitational 2
74 Karissa Sugita 2019 23:57 8:10 10/21/16 Mt. Sac Invitational 2
75 Mercedes Floyd 2016 24:00 8:11 10/25/13 Mt. Sac Invitational 2
76 Mad Mckendrick 2011 24:12 8:16 10/19/07 Mt. Sac Invitational 1
77 Joanna Hwang 2018 24:13 8:16 10/21/16 Mt. Sac Invitational 2
78 Anna Johnson 2007 24:14 8:16 10/24/04 Mt. Sac Invitational 1
79 Brooke Tebbe 2014 24:18 8:18 10/23/10 Mt. Sac Invitational 4
80 Moni Fernandez 2013 24:27 8:21 10/23/09 Mt. Sac Invitational 1
81 Riley Clausi 2025 24:29 8:21 10/22/21 Mt. Sac Invitational 1
82 Briana Fieffer 2020 24:35 8:23 10/21/16 Mt. Sac Invitational 1
83 Brittney Gann 2015 24:38 8:24 10/25/13 Mt. Sac Invitational 1
83 Kilee Holroyd 2014 24:38 8:24 10/23/10 Mt. Sac Invitational 1
85 Khadja Abdulahi 2013 24:44 8:26 10/20/12 Mt. Sac Invitational 1
85 Cadence Koenke 2024 24:44 8:26 10/22/21 Mt. Sac Invitational 1
87 Courtney Blachy 2008 24:47 8:28 10/21/06 Mt. Sac Invitational 1
88 Bria Reiniger 2007 24:52 8:29 10/24/04 Mt. Sac Invitational 1
89 Anissa Tejeda 2014 25:01 8:32 10/25/13 Mt. Sac Invitational 1
90 Courtney Blachley 2009 25:07 8:34 11/15/08 Southern Section Prelims 1
91 Alexandra Saati 2016 25:10 8:35 10/25/13 Mt. Sac Invitational 1
92 Laura Hanak 2008 25:12 8:36 10/21/06 Mt. Sac Invitational 1
93 Eunice Kahng 2014 25:15 8:37 10/20/12 Mt. Sac Invitational 3
94 Kayla Yesenosky 2024 25:20.6 8:39 10/22/21 Mt. Sac Invitational 1
95 Melissa Bouakeo 2017 25:23.7 8:40 10/24/14 Mt. Sac Invitational 2
96 Taylor Brobst 2019 25:25 8:40 10/21/16 Mt. Sac Invitational 2
97 Chelsea Bilbia 2014 25:26 8:41 10/21/11 Mt. Sac Invitational 2
98 Alyssa Bacilio 2025 25:26.1 8:41 10/22/21 Mt. Sac Invitational 1
99 Jasmine Alvarez 2017 25:28 8:42 10/23/15 Mt. Sac Invitational 3
100 samantha aguilar 2024 25:34.6 8:44 10/22/21 Mt. Sac Invitational 1
101 Sabrina Bulla 2014 25:35 8:44 10/20/12 Mt. Sac Invitational 2
102 Samantha Marin 2017 25:37 8:45 10/23/15 Mt. Sac Invitational 1
103 Jamie Jow 2018 25:48 8:48 10/24/14 Mt. Sac Invitational 2
104 Mia Wong 2025 25:51.2 8:49 10/22/21 Mt. Sac Invitational 1
105 Jessica Huynh 2013 25:56 8:51 10/21/11 Mt. Sac Invitational 1
106 Erika Nguyen 2016 25:56.4 8:51 10/24/14 Mt. Sac Invitational 1
107 Connie Lim 2012 26:01 8:53 10/23/09 Mt. Sac Invitational 1
108 Brenda Sendejas 2012 26:03 8:53 10/21/11 Mt. Sac Invitational 2
109 Kimberly Marquez 2018 26:08 8:55 10/24/14 Mt. Sac Invitational 1
110 Samantha Polk 2022 26:18 8:59 10/22/21 Mt. Sac Invitational 1
111 Taylor Perez 2019 26:21 9:00 10/21/16 Mt. Sac Invitational 1
111 Molly Pojar 2015 26:21 9:00 10/21/11 Mt. Sac Invitational 1
113 Rachel Wilkerson 2023 26:25.5 9:01 10/22/21 Mt. Sac Invitational 1
114 Jaidyn Ramirez 2019 26:29 9:02 10/23/15 Mt. Sac Invitational 1
114 Savina Corzano 2016 26:29 9:02 10/25/13 Mt. Sac Invitational 1
116 Kayla Turay 2018 26:35 9:04 10/21/16 Mt. Sac Invitational 1
117 Khad.j.a Abdulahi 2013 26:39 9:06 10/21/11 Mt. Sac Invitational 1
118 Carley Patterson 2006 26:53 9:11 10/24/04 Mt. Sac Invitational 1
119 Lauren Oechsle 2013 26:56 9:12 10/23/09 Mt. Sac Invitational 1
120 Julianna Hwang 2019 27:01 9:13 10/21/16 Mt. Sac Invitational 1
121 Casarah Aguilar 2007 27:03 9:14 10/24/04 Mt. Sac Invitational 1
122 Marlene Cuando 2013 27:08 9:16 10/21/11 Mt. Sac Invitational 1
123 Natalie Bonilla 2023 27:35.9 9:25 10/22/21 Mt. Sac Invitational 1
124 Jennifer Wachtel 2008 27:46 9:29 10/24/04 Mt. Sac Invitational 1
125 Adriana Krouse 2020 27:50 9:30 10/21/16 Mt. Sac Invitational 1
126 Carolina Meza 2023 27:56.2 9:32 10/22/21 Mt. Sac Invitational 1
127 Melanie Houser 2007 28:03 9:34 10/24/04 Mt. Sac Invitational 1
128 Sara Hurley 2018 28:07 9:36 10/21/16 Mt. Sac Invitational 2
129 Valaria Leyva 2016 28:15 9:38 10/20/12 Mt. Sac Invitational 1
130 Viet Quyen Pham 2017 28:17.6 9:39 10/24/14 Mt. Sac Invitational 1
131 June Bott 2006 28:31 9:44 10/24/04 Mt. Sac Invitational 1
132 Vanessa Lee 2012 28:48 9:50 10/21/11 Mt. Sac Invitational 1
133 Larissa O-neill 2018 29:00 9:54 10/23/15 Mt. Sac Invitational 1
134 Vanessa Acosta 2007 29:04 9:55 10/24/04 Mt. Sac Invitational 1
135 Daisy Cuevas 2013 29:28 10:03 10/20/12 Mt. Sac Invitational 1
136 Cloe Hernandez 2018 29:35 10:06 10/23/15 Mt. Sac Invitational 1
137 Joyzel Aquino 2020 30:27 10:24 10/21/16 Mt. Sac Invitational 1
138 Trina Nguyen 2017 31:00 10:35 10/25/13 Mt. Sac Invitational 1
All Time Rank Runner Name Grad Year Time Pace PR Date PR Event # of
Races
Graph full race
history on course
(pick up to 7)

Note: All columns are sortable by clicking on the column heading.